This is the latest recevied weather packets stored in our database for station/object E20YUC-1. If no packets are shown the sender has not sent any weather packets the latest 10 day(s).
| Time | Temp. | Humidity | Pressure | Rain* | Wind** | Luminosity | Snow |
|---|---|---|---|---|---|---|---|
| 1787420658 | 27.22° C | 80% | 996.1 hPa | 0 mm | 0 m/s | - | - |
| 1787420364 | 27.22° C | 80% | 996.2 hPa | 0 mm | 0 m/s | - | - |
| 1787419998 | 27.22° C | 80% | 996.2 hPa | 0 mm | 1.79 m/s, 0° | - | - |
| 1787419699 | 27.22° C | 80% | 996.2 hPa | 0 mm | 0 m/s | - | - |
| 1787419398 | 27.22° C | 80% | 996.3 hPa | 0 mm | 0 m/s | - | - |
| 1787418797 | 27.22° C | 80% | 996.4 hPa | 0 mm | 0.45 m/s, 0° | - | - |
| 1787418497 | 27.22° C | 40% | 996.5 hPa | 0 mm | 0.89 m/s, 0° | - | - |
| 1787418199 | 27.22° C | 80% | 996.7 hPa | 0 mm | 0.89 m/s, 0° | - | - |
| 1787417898 | 27.22° C | 79% | 996.8 hPa | 0 mm | 0.89 m/s, 0° | - | - |
| 1787417605 | 27.22° C | 79% | 996.9 hPa | 0 mm | 0 m/s | - | - |
| 1787417297 | 27.22° C | 79% | 996.9 hPa | 0 mm | 0 m/s | - | - |
| 1787416997 | 27.22° C | 79% | 996.9 hPa | 0 mm | 0.89 m/s, 0° | - | - |
| 1787416639 | 27.22° C | 79% | 996.9 hPa | 0 mm | 0.89 m/s, 0° | - | - |
| 1787416337 | 27.22° C | 78% | 997 hPa | 0 mm | 0 m/s | - | - |
| 1787416037 | 27.22° C | 78% | 997.2 hPa | 0 mm | 0 m/s | - | - |
| 1787415437 | 27.22° C | 78% | 997.2 hPa | 0 mm | 0 m/s | - | - |
| 1787415139 | 27.78° C | 78% | 997.4 hPa | 0 mm | 0.89 m/s, 0° | - | - |
| 1787414537 | 27.78° C | 78% | 997.7 hPa | 0 mm | 0.89 m/s, 0° | - | - |
| 1787413937 | 27.78° C | 77% | 997.7 hPa | 0 mm | 2.68 m/s, 0° | - | - |
| 1787413638 | 27.78° C | 77% | 997.8 hPa | 0 mm | 0.89 m/s, 0° | - | - |
| 1787413037 | 27.78° C | 77% | 997.8 hPa | 0 mm | 0 m/s | - | - |
| 1787412436 | 27.78° C | 76% | 997.8 hPa | 0 mm | 0.45 m/s, 0° | - | - |
| 1787412138 | 27.78° C | 76% | 997.8 hPa | 0 mm | 0.89 m/s, 0° | - | - |
| 1787411837 | 27.78° C | 76% | 997.8 hPa | 0 mm | 0 m/s | - | - |
| 1787411236 | 28.33° C | 76% | 997.8 hPa | 0 mm | 0.45 m/s, 0° | - | - |
* Rain latest hour (hover to see other rain measurements)
** Current wind speed in m/s (hover to see current wind gust speed)